Flag for U.S.A. Weather past 2 weeks in Panama City, Florida, U.S.A.

Now
51 °F

Clear.


Feels Like: 48 °F
Forecast: 51 / 67 °F
Wind: 6 mph from East

Location: Tyndall Air Force Base

Current Time: Jan 31, 2015 at 11:56:28 PM

Latest Report: Jan 31, 2015 at 10:58 PM


Visibility: 10 mi

Pressure: 30.23 "Hg

Humidity: 64%

Dew point: 39 °F

Location of Panama CityLocation

Historic Weather in Panama City — Graph

°F

Panama City temperature yesterday

Maximum temperature yesterday: 64 °F (at 2:58 PM)
Minimum temperature yesterday: 47 °F (at 11:58 PM)
Average temperature yesterday: 57 °F

Past Weeks' High & Low Weather Summary

 TemperatureHumidityPressure
High73 °F (Jan 21, 2:08 PM)100% (Jan 18, 1:03 AM)30.36 "Hg (Jan 18, 1:03 AM)
Low35 °F (Jan 19, 6:58 AM)22% (Jan 19, 11:58 AM)29.79 "Hg (Jan 23, 4:58 PM)
Average54 °F74%30.11 "Hg
* Reported Jan 16 10:58 PM — Jan 31 10:58 PM, Panama City, Weather by CustomWeather, © 2014

Note: Actual official high and low records may vary slightly from our data, if they occured in-between our weather recording intervals... More about our weather records

Advertising

Panama City weather history for previous 24 hours

 ConditionsComfort  
Time TempWeatherWind HumidityBarometerVisibility
10:58 PM
Jan 31
51 °FClear.6 mph64%30.23 "Hg10 mi
9:58 PM51 °FClear.5 mph68%30.25 "Hg10 mi
8:58 PM52 °FPassing clouds.6 mph65%30.25 "Hg10 mi
7:58 PM53 °FClear.6 mph61%30.26 "Hg10 mi
6:58 PM53 °FPassing clouds.5 mph61%30.27 "Hg10 mi
5:58 PM55 °FClear.5 mph59%30.27 "Hg10 mi
4:58 PM56 °FClear.2 mph66%30.26 "Hg10 mi
3:58 PM60 °FSunny.6 mph49%30.26 "Hg10 mi
2:58 PM64 °FSunny.7 mph29%30.27 "Hg10 mi
1:58 PM62 °FSunny.5 mph31%30.28 "Hg10 mi
12:58 PM61 °FSunny.7 mph32%30.30 "Hg10 mi
11:58 AM59 °FSunny.6 mph33%30.33 "Hg10 mi
10:58 AM56 °FSunny.10 mph38%30.36 "Hg10 mi
9:58 AM52 °FSunny.9 mph42%30.36 "Hg10 mi
8:58 AM46 °FSunny.8 mph53%30.35 "Hg10 mi
7:58 AM42 °FSunny.6 mph59%30.35 "Hg10 mi
6:58 AM39 °FSunny.5 mph66%30.34 "Hg10 mi
5:58 AM40 °FSunny.6 mph65%30.34 "Hg10 mi
4:58 AM42 °FClear.8 mph61%30.33 "Hg10 mi
3:58 AM43 °FClear.7 mph59%30.32 "Hg10 mi
2:58 AM44 °FClear.10 mph57%30.31 "Hg10 mi
1:58 AM45 °FClear.9 mph56%30.32 "Hg10 mi
12:58 AM46 °FClear.8 mphN/A30.32 "Hg10 mi
11:58 PM
Jan 30
47 °FClear.6 mph57%30.32 "Hg10 mi
Weather by CustomWeather, © 2014

See weather overviewHow to use our weather pages